Flag for U.S.A. Weather past 2 weeks in Leawood, Kansas, U.S.A.

Now
39 °F

Light rain. Overcast.


Feels Like: 31 °F
Forecast: 34 / 46 °F
Wind: 13 mph from North

Location: Johnson County Executive Airport

Current Time: Mar 27, 2015 at 1:04:50 AM

Latest Report: Mar 27, 2015 at 12:03 AM


Visibility: 9 mi

Pressure: 30.14 "Hg

Humidity: 89%

Dew point: 36 °F

Location of LeawoodLocation

Historic Weather in Leawood — Graph

°F

Leawood temperature yesterday

Maximum temperature yesterday: 51 °F (at 4:53 PM)
Minimum temperature yesterday: 34 °F (at 7:53 AM)
Average temperature yesterday: 43 °F

Past Weeks' High & Low Weather Summary

 TemperatureHumidityPressure
High80 °F (Mar 16, 2:53 PM)100% (Mar 19, 1:53 AM)30.35 "Hg (Mar 19, 1:53 AM)
Low32 °F (Mar 20, 6:53 AM)22% (Mar 15, 4:53 PM)29.76 "Hg (Mar 24, 4:53 PM)
Average52 °F62%30.10 "Hg
* Reported Mar 12 12:53 AM — Mar 27 12:03 AM, Leawood, Weather by CustomWeather, © 2015

Note: Actual official high and low records may vary slightly from our data, if they occured in-between our weather recording intervals... More about our weather records

Advertising

Leawood weather history for previous 24 hours

 ConditionsComfort  
Time TempWeatherWind HumidityBarometerVisibility
12:03 AM
Fri, Mar 27
39 °FLight rain. Overcast.13 mph89%30.14 "Hg9 mi
10:53 PM
Thu, Mar 26
46 °FOvercast.12 mph48%30.12 "Hg10 mi
9:53 PM47 °FMostly cloudy.8 mph48%30.09 "Hg10 mi
8:53 PM48 °FOvercast.5 mph44%30.10 "Hg10 mi
7:53 PM48 °FOvercast.3 mph43%30.07 "Hg10 mi
6:53 PM49 °FOvercast.3 mph41%30.07 "Hg10 mi
5:53 PM50 °FSunny.9 mph38%30.08 "Hg10 mi
4:53 PM51 °FSunny.10 mph36%30.09 "Hg10 mi
3:53 PM50 °FSunny.7 mph39%30.11 "Hg10 mi
2:53 PM50 °FSunny.12 mph39%30.13 "Hg10 mi
1:53 PM48 °FPassing clouds.13 mph44%30.16 "Hg10 mi
12:53 PM46 °FSunny.10 mph46%30.17 "Hg10 mi
11:53 AM44 °FSunny.14 mph45%30.20 "Hg10 mi
10:53 AM43 °FSunny.14 mph47%30.21 "Hg10 mi
9:53 AM40 °FSunny.13 mph55%30.22 "Hg10 mi
8:53 AM37 °FSunny.9 mph73%30.22 "Hg10 mi
7:53 AM34 °FClear.7 mph85%30.22 "Hg9 mi
6:53 AM35 °FClear.9 mph82%30.19 "Hg10 mi
5:53 AM36 °FClear.8 mph82%30.16 "Hg10 mi
4:53 AM38 °FClear.8 mph79%30.14 "Hg10 mi
3:53 AM39 °FClear.10 mph76%30.13 "Hg10 mi
2:53 AM39 °FPassing clouds.10 mph79%30.12 "Hg10 mi
1:53 AM40 °FClear.12 mph83%30.11 "Hg10 mi
Weather by CustomWeather, © 2015

See weather overviewHow to use our weather pages